Regional Weather Roundup
Issued by NWS Albany, NY

Home | Current Version | Previous Version | Text Only | Print | Product List | Glossary On
Versions: 1 2 3 4 5 6 7 8 9 10 11 12 13 14 15 16 17 18 19 20 21 22 23 24 25 26 27 28 29 30 31 32 33 34 35 36 37 38 39 40 41 42 43 44 45 46 47 48 49 50
000
ASUS41 KALY 291910
RWRALY

NEW YORK STATE HOURLY WEATHER ROUNDUP
NATIONAL WEATHER SERVICE ALBANY NY
300 PM EDT FRI APR 29 2016

NOTE: "FAIR" INDICATES FEW OR NO CLOUDS BELOW 12,000 FEET WITH NO
SIGNIFICANT WEATHER AND/OR NO OBSTRUCTIONS TO VISIBILITY.

NYZ032-033-038>043-046>054-057>066-NYZ062>081-082-084-292000-
EAST


CITY           SKY/WX    TMP DP  RH WIND       PRES   REMARKS
ALBANY         CLOUDY    58  36  43 S13       30.06S
GLENS FALLS    SUNNY     60  34  37 S6        30.04F
POUGHKEEPSIE   CLOUDY    58  30  34 SE8       30.07S
NEWBURGH       CLOUDY    55  34  44 SE12      30.08S
MONTGOMERY     CLOUDY    57  33  40 S7        30.06S
WHITE PLAINS   PTSUNNY   54  33  45 E9G17     30.08S
ISLIP          PTSUNNY   54  29  38 SE16      30.08F
NEW YORK CITY  CLOUDY    55  40  56 NE14      30.08F
CENTRAL PARK   CLOUDY    57  34  41 NE8       30.10F
$$

NYZ005>009-017-018-044>046-055-056-292000-
CENTRAL


CITY           SKY/WX    TMP DP  RH WIND       PRES   REMARKS
FULTON         CLOUDY    56  34  43 S7        30.06R
SYRACUSE       LGT RAIN  51  41  68 SE6       30.06R
ROME           LGT RAIN  53  36  52 CALM      30.07R
ELMIRA         CLOUDY    52  40  63 SW9       30.02F
BINGHAMTON     CLOUDY    50  34  54 S7        30.02S
MONTICELLO     CLOUDY    52  30  43 S6        30.06F
$$

NYZ026>034-041>043-087-292000-
NORTH


CITY           SKY/WX    TMP DP  RH WIND       PRES   REMARKS
WATERTOWN      MOSUNNY   56  27  32 N14       30.05F
FORT DRUM      NOT AVBL
MASSENA        SUNNY     53  18  25 E8        30.11F
SARANAC LAKE   SUNNY     57  17  21 S7        30.01F
PLATTSBURGH    MOSUNNY   52  22  30 NE7       30.10F
$$

NYZ001>004-010>016-019>021-085-292000-
WEST


CITY           SKY/WX    TMP DP  RH WIND       PRES   REMARKS
NIAGARA FALLS  CLOUDY    50  30  46 NE10      30.04S
BUFFALO        CLOUDY    48  35  60 NE12      30.03R
DUNKIRK        CLOUDY    49  35  58 N13       30.02S
JAMESTOWN      CLOUDY    46  41  81 S3        29.99R
WELLSVILLE     FOG       45  43  93 SE7       29.99F VSB 1
ROCHESTER      CLOUDY    47  32  56 NE10      30.06F
PENN YAN       CLOUDY    51  37  58 CALM      30.03F
$$

             KEY
       WCI = WIND CHILL INDEX
       VSB = VISIBILITY
       HX  = HEAT INDEX
$$



USA.gov is the U.S. government's official web portal to all federal, state and local government web resources and services.